METAR Formatted Surface Weather Observation
Issued by NWS Charleston, WV

Home | Current Version | Previous Version | Text Only | Print | Product List | Glossary On
Versions: 1 2 3 4 5 6 7 8 9 10 11 12 13 14 15 16 17 18 19 20 21 22 23 24 25 26 27 28 29 30 31 32 33 34
000
SAUS41 KRLX 240901 COR
MTRCRW
METAR KCRW 240854Z 00000KT 4SM BR BKN001 OVC006 21/21 A2993 RMK AO2
SLP122 VLY FG T02110211 56011 $



USA.gov is the U.S. government's official web portal to all federal, state and local government web resources and services.